| time (UTC) | temp C | wind direction | speed KPH | gust KPH | rain 1hr cm | rain 24hr cm | rain mn cm | humidity % | barometer mb |
| 20260505034546 | 15 | 0 | 0.0 | 1.6 | 0.00 | 0.00 | 0.00 | 70 | 1015.5 |
| 20260505033045 | 15 | 0 | 0.0 | 0.0 | 0.00 | 0.00 | 0.00 | 70 | 1015.5 |
| 20260505031546 | 15 | 0 | 0.0 | 0.0 | 0.00 | 0.00 | 0.00 | 70 | 1015.6 |
| 20260505030057 | 15 | 0 | 0.0 | 0.0 | 0.00 | 0.00 | 0.00 | 66 | 1015.6 |
| 20260505024547 | 16 | 0 | 0.0 | 0.0 | 0.00 | 0.00 | 0.00 | 67 | 1015.7 |
| 20260505023047 | 16 | 0 | 0.0 | 1.6 | 0.00 | 0.00 | 0.00 | 67 | 1015.6 |
| 20260505021554 | 16 | 0 | 0.0 | 0.0 | 0.00 | 0.00 | 0.00 | 64 | 1015.6 |
| 20260505020056 | 16 | 0 | 0.0 | 0.0 | 0.00 | 0.00 | 0.00 | 65 | 1015.4 |
| 20260505014543 | 16 | 0 | 0.0 | 0.0 | 0.00 | 0.00 | 0.00 | 64 | 1015.4 |
| 20260505013053 | 17 | 0 | 0.0 | 0.0 | 0.00 | 0.00 | 0.00 | 60 | 1015.2 |
| 20260505011547 | 17 | 0 | 0.0 | 0.0 | 0.00 | 0.00 | 0.00 | 59 | 1015.1 |
| 20260505010107 | 18 | 0 | 0.0 | 0.0 | 0.00 | 0.00 | 0.00 | 57 | 1015.0 |
| 20260505004637 | 18 | 0 | 0.0 | 1.6 | 0.00 | 0.00 | 0.00 | 57 | 1014.9 |
| 20260505003051 | 19 | 0 | 0.0 | 1.6 | 0.00 | 0.00 | 0.00 | 54 | 1014.8 |
| 20260505001545 | 20 | 0 | 0.0 | 0.0 | 0.00 | 0.00 | 0.00 | 53 | 1014.6 |
| 20260505000058 | 21 | 0 | 0.0 | 0.0 | 0.00 | 0.00 | 0.00 | 50 | 1014.5 |
| 20260504234549 | 21 | 0 | 0.0 | 0.0 | 0.00 | 0.00 | 0.00 | 49 | 1014.5 |
| 20260504233054 | 21 | 0 | 0.0 | 0.0 | 0.00 | 0.00 | 0.00 | 48 | 1014.5 |
| 20260504231552 | 22 | 0 | 0.0 | 0.0 | 0.00 | 0.00 | 0.00 | 48 | 1014.5 |
| 20260504230104 | 22 | 0 | 0.0 | 0.0 | 0.00 | 0.00 | 0.00 | 45 | 1014.6 |
| 20260504224600 | 23 | 0 | 0.0 | 1.6 | 0.00 | 0.00 | 0.00 | 42 | 1014.6 |
| 20260504223050 | 24 | 118 | 0.0 | 6.4 | 0.00 | 0.00 | 0.00 | 39 | 1014.6 |
| 20260504221557 | 25 | 0 | 0.0 | 3.2 | 0.00 | 0.00 | 0.00 | 39 | 1014.5 |
| 20260504220053 | 26 | 147 | 0.0 | 6.4 | 0.00 | 0.00 | 0.00 | 38 | 1014.4 |
| 20260504214547 | 27 | 0 | 0.0 | 4.8 | 0.00 | 0.00 | 0.00 | 37 | 1014.5 |
| 20260504213050 | 27 | 241 | 0.0 | 1.6 | 0.00 | 0.00 | 0.00 | 34 | 1014.5 |
| 20260504211554 | 26 | 0 | 0.0 | 1.6 | 0.00 | 0.00 | 0.00 | 37 | 1014.4 |
| 20260504204555 | 26 | 0 | 0.0 | 1.6 | 0.00 | 0.00 | 0.00 | 38 | 1014.8 |
| 20260504203050 | 26 | 302 | 0.0 | 3.2 | 0.00 | 0.00 | 0.00 | 40 | 1014.9 |
| 20260504201549 | 26 | 209 | 0.0 | 4.8 | 0.00 | 0.00 | 0.00 | 40 | 1015.1 |
| 20260504194548 | 27 | 0 | 1.6 | 8.0 | 0.00 | 0.00 | 0.00 | 34 | 1015.2 |
| 20260504193055 | 27 | 278 | 0.0 | 6.4 | 0.00 | 0.00 | 0.00 | 35 | 1015.6 |
| 20260504191605 | 27 | 352 | 1.6 | 4.8 | 0.00 | 0.00 | 0.00 | 35 | 1015.8 |
| 20260504190047 | 27 | 128 | 0.0 | 4.8 | 0.00 | 0.00 | 0.00 | 37 | 1016.1 |
| 20260504184543 | 26 | 0 | 0.0 | 3.2 | 0.00 | 0.00 | 0.00 | 35 | 1016.3 |
| 20260504183054 | 26 | 175 | 0.0 | 3.2 | 0.00 | 0.00 | 0.00 | 36 | 1016.5 |
| 20260504181546 | 26 | 90 | 1.6 | 4.8 | 0.00 | 0.00 | 0.00 | 35 | 1016.6 |
| 20260504180047 | 25 | 96 | 1.6 | 4.8 | 0.00 | 0.00 | 0.00 | 38 | 1016.7 |
| 20260504174551 | 25 | 48 | 3.2 | 6.4 | 0.00 | 0.00 | 0.00 | 37 | 1016.8 |
| 20260504173046 | 25 | 112 | 0.0 | 3.2 | 0.00 | 0.00 | 0.00 | 44 | 1016.8 |
| 20260504171549 | 24 | 265 | 1.6 | 4.8 | 0.00 | 0.00 | 0.00 | 39 | 1017.1 |
| 20260504120109 | 6 | 0 | 0.0 | 0.0 | 0.00 | 0.00 | 0.00 | 95 | 1018.3 |
| 20260504081552 | 7 | 0 | 0.0 | 0.0 | 0.00 | 0.00 | 0.00 | 93 | 1017.8 |
| 20260504044552 | 9 | 0 | 0.0 | 0.0 | 0.00 | 0.00 | 0.00 | 86 | 1018.7 |
| 20260504043110 | 9 | 0 | 0.0 | 0.0 | 0.00 | 0.00 | 0.00 | 85 | 1018.7 |
| 20260504041549 | 9 | 0 | 0.0 | 0.0 | 0.00 | 0.00 | 0.00 | 86 | 1018.8 |
| 20260504040049 | 10 | 0 | 0.0 | 0.0 | 0.00 | 0.00 | 0.00 | 86 | 1018.8 |